Dewpoint
67 69 69 70 70 70 70 70 70 70 70 70 70 70 70 70 70 70 71 71 71 71 72 72 72 72 71 71 71 70 70 69 69 68 67 67 67 66 67 66 66 66 66 66 65 65 65 65 65 65 64 64 65 64 64 65 65 64 64 64 63 63 62 61 59 59 62 62 63 64 65 65 66 65 65 65 66 67 66 67 67 66 66 66 66
67 68 69 69 69 70 70 70 70 70 70 70 70 70 70 70 71 71 70 71 71 71 71 71 72 71 71 71 71 70 70 70 69 68 67 67 66 66 66 66 65 65 66 66 66 65 65 65 65 65 65 64 64 64 65 64 64 64 64 64 63 63 63 61 61 61 60 62 64 64 64 65 65 66 65 65 66 66 66 67 66 65 66 66 66
66 68 68 69 69 70 70 70 70 70 69 69 69 69 70 70 71 71 70 70 71 71 71 71 72 71 71 71 71 70 70 69 69 68 67 67 66 66 66 65 65 65 65 65 65 66 65 65 64 65 65 64 64 64 64 65 64 64 64 64 63 64 64 63 63 62 61 62 63 63 64 65 65 66 65 65 66 65 65 66 65 65 66 66 65
66 67 68 68 69 69 70 70 69 69 69 69 69 69 69 70 71 71 70 70 70 71 71 71 71 71 71 71 71 70 70 69 69 68 67 67 66 66 66 66 65 65 65 65 65 65 65 65 64 64 65 65 64 64 64 65 65 65 65 65 65 65 65 64 64 63 63 62 63 63 64 64 64 65 64 65 65 66 65 66 66 66 66 66 66
65 66 67 67 68 69 69 69 69 69 69 69 69 69 69 69 70 70 70 70 71 71 71 71 71 71 70 70 70 70 70 69 69 68 67 67 66 66 66 65 65 65 65 65 65 65 65 64 65 65 65 65 65 64 64 64 64 65 64 65 65 65 65 65 64 64 63 63 64 63 64 64 65 65 65 65 65 66 66 65 65 65 66 65 64
65 66 67 67 68 68 69 69 69 69 69 69 69 69 69 70 70 70 70 70 70 70 71 71 71 71 71 71 70 70 70 70 69 69 67 67 66 66 66 65 65 65 65 65 65 65 64 64 65 65 64 64 64 64 64 64 64 64 64 64 65 65 65 65 65 64 64 64 64 64 63 63 65 65 65 65 65 65 65 65 65 65 65 64 63
66 66 67 67 68 68 68 69 69 69 70 70 70 70 70 70 70 70 70 70 70 70 70 71 71 71 71 70 70 70 70 70 69 69 68 68 67 66 65 65 65 65 65 65 64 65 65 64 65 65 64 64 63 64 64 64 64 64 65 64 64 64 64 64 64 64 64 63 63 63 63 63 63 63 64 65 65 64 64 64 64 65 65 64 63
66 67 67 68 68 68 69 69 69 70 70 71 71 70 70 70 71 71 71 70 70 70 70 70 70 70 70 70 70 70 70 70 69 69 69 68 67 66 66 65 65 65 65 65 65 64 65 64 64 64 64 64 64 64 64 64 64 64 64 64 64 64 64 64 64 63 63 63 63 63 63 63 64 64 64 63 63 63 64 64 62 62 62 63 63
67 67 67 68 69 69 70 70 70 70 70 71 71 71 71 71 71 71 71 71 70 70 70 70 70 70 70 70 70 70 70 69 69 69 68 68 67 67 66 65 65 64 65 64 65 65 65 65 64 64 65 66 66 65 65 64 64 63 65 65 65 64 64 64 63 63 63 63 63 63 62 64 63 63 62 62 62 63 63 63 63 63 63 62 63
67 67 67 68 69 69 70 70 70 71 70 71 71 71 71 71 71 71 71 71 71 71 71 71 70 70 70 70 70 70 70 69 66 62 64 68 67 67 66 66 65 65 65 65 64 64 64 64 65 66 67 67 67 67 66 65 65 64 64 64 64 63 63 63 63 63 63 62 62 62 61 62 62 61 62 62 62 62 62 62 61 62 62 61 62
67 67 68 68 69 70 70 70 71 71 71 71 71 71 71 71 72 72 71 71 71 71 71 71 70 70 70 70 70 69 69 69 63 61 62 63 67 67 66 66 66 65 65 65 64 65 65 65 65 66 67 67 67 68 67 66 66 65 64 64 64 64 63 63 63 63 63 62 62 62 61 61 61 62 61 61 61 61 62 61 60 60 59 59 59
66 68 68 69 69 69 70 70 71 71 71 71 71 71 72 72 72 72 72 71 71 71 71 71 71 70 70 70 69 69 69 64 61 61 61 61 63 67 67 66 66 66 65 65 65 65 65 65 65 65 66 66 66 67 68 67 65 65 64 63 63 63 63 64 64 63 64 62 62 61 61 61 63 62 62 61 62 61 61 61 60 60 60 59 59
66 67 68 69 69 70 70 70 71 71 71 71 72 72 72 72 72 72 71 72 71 71 71 71 71 71 70 70 69 69 69 64 61 60 61 60 61 64 67 66 66 66 66 65 65 65 65 65 65 66 65 67 67 67 68 68 66 63 63 64 64 62 61 61 62 65 64 63 62 62 61 62 63 63 62 62 62 61 61 60 60 60 60 60 60
66 67 68 69 69 70 70 70 70 71 71 72 72 72 72 72 72 72 72 72 72 71 71 71 71 71 71 70 70 70 69 64 60 59 59 59 60 63 67 66 66 66 66 66 65 65 65 65 65 65 66 66 67 67 67 68 68 68 67 66 67 66 63 61 60 60 63 63 63 62 63 63 63 63 64 63 61 62 61 60 61 60 60 60 61
66 67 68 69 69 70 70 70 70 71 71 72 72 72 72 72 72 72 72 71 71 71 71 71 71 71 70 70 70 70 69 62 59 58 58 58 59 61 67 67 67 66 66 66 66 66 66 66 66 66 66 66 67 67 67 67 68 68 68 67 67 67 67 65 64 64 64 65 64 64 64 63 64 64 64 64 64 64 64 63 63 62 62 60 59
66 67 68 69 69 70 70 70 70 71 71 72 72 72 72 72 72 72 72 72 72 71 71 71 71 71 71 70 70 70 70 60 58 57 57 57 58 64 67 67 67 67 67 67 66 67 67 66 66 66 66 66 66 64 66 68 67 67 67 67 67 67 66 65 63 63 66 65 64 64 65 66 63 65 65 64 64 64 63 63 62 61 60 58 56
67 67 68 68 69 70 70 70 71 71 71 71 72 72 72 72 72 72 72 72 71 71 71 71 71 71 71 71 70 70 70 62 57 56 56 56 58 65 66 67 67 67 67 67 67 67 67 66 66 66 66 66 64 60 62 67 67 66 66 66 66 65 65 65 61 61 61 60 60 60 60 60 59 58 57 58 62 62 62 60 58 56 56 55 55
67 68 68 69 69 70 70 70 70 71 71 71 71 72 72 72 72 72 72 71 71 71 71 71 71 71 71 70 70 70 70 63 56 55 55 55 60 66 67 67 67 67 67 67 67 67 67 68 67 66 66 66 60 59 60 64 65 65 66 65 64 64 64 64 64 64 60 60 59 59 59 59 59 58 57 55 56 59 60 57 56 55 56 56 54
67 68 68 69 70 70 71 71 71 71 71 71 72 72 72 72 72 72 72 72 71 72 71 71 71 71 70 70 66 69 70 63 55 55 55 55 60 67 67 66 66 66 67 67 67 66 67 68 67 66 66 64 58 58 58 63 66 65 65 64 64 63 64 64 64 63 63 62 61 61 61 59 61 62 63 56 56 58 60 59 58 56 55 56 55
67 68 68 69 70 71 71 71 72 71 72 72 72 72 72 72 72 72 72 72 71 71 71 71 71 71 70 70 70 69 70 67 59 54 54 54 56 67 67 66 66 66 66 66 66 66 67 68 66 60 59 58 56 55 56 59 64 65 64 64 64 63 63 63 63 63 63 62 61 61 60 61 60 62 62 60 59 60 60 59 58 58 58 56 54
67 68 69 69 70 71 71 71 71 72 72 72 72 72 72 72 72 72 72 72 72 72 71 71 70 71 70 71 70 70 70 68 61 54 54 54 55 60 67 67 67 67 67 66 66 66 66 67 67 59 56 55 54 53 54 56 60 64 64 64 64 64 62 63 64 64 63 61 61 60 59 60 59 59 58 58 57 58 60 58 58 58 56 53 50
67 68 69 69 69 70 71 72 72 72 72 72 72 72 72 72 72 72 72 72 72 72 71 71 70 70 71 71 71 71 69 64 64 55 54 53 54 56 66 67 67 67 67 66 66 66 66 66 67 60 55 54 53 52 52 54 58 64 64 57 55 58 63 63 64 62 61 60 59 58 58 58 57 57 57 57 58 59 58 58 58 57 55 52 54
68 68 68 69 69 70 71 71 71 72 72 72 72 72 72 72 72 72 72 72 72 71 71 71 70 70 70 71 71 71 71 67 60 60 54 53 52 54 59 64 61 68 67 66 65 65 66 66 65 57 54 52 51 51 51 54 58 61 51 51 55 58 61 61 61 60 59 58 58 58 58 57 57 56 57 57 57 58 56 56 56 57 58 57 56
68 68 68 68 69 69 70 71 71 72 72 72 72 72 72 72 72 72 72 72 71 71 71 71 70 70 70 70 70 70 70 69 60 58 58 53 52 53 56 58 59 66 67 66 65 65 65 65 63 54 51 48 49 50 52 55 60 49 50 54 56 60 61 61 59 59 59 57 58 58 57 57 57 57 57 58 57 59 59 57 57 55 55 55 55
68 68 68 68 69 69 70 71 71 72 72 72 72 72 72 72 72 72 72 72 71 71 71 70 70 70 70 69 69 69 68 67 64 60 57 54 53 52 55 56 57 59 65 65 65 64 60 57 53 50 50 49 49 51 52 53 50 50 51 55 60 60 60 59 59 58 58 58 57 57 56 57 57 57 58 58 59 58 58 57 56 55 54 54 54
68 68 68 68 68 69 69 70 71 71 72 72 71 72 71 71 71 71 71 71 71 71 70 70 70 70 69 69 69 68 67 66 65 63 58 55 54 53 55 56 58 60 62 63 60 58 55 53 51 51 50 52 56 59 59 57 53 53 53 57 60 59 59 58 58 58 58 56 56 56 56 56 57 58 59 58 57 57 57 56 54 53 52 53 51
67 68 68 68 68 68 69 69 70 70 71 71 71 71 71 71 71 70 71 71 71 71 70 70 70 69 69 69 68 66 65 65 64 62 60 58 58 56 58 59 58 59 62 62 58 59 56 56 56 55 55 55 58 57 57 55 55 56 57 58 58 58 58 59 58 58 58 56 56 56 56 57 57 57 57 57 58 57 55 55 52 51 52 52 51
68 68 68 68 68 68 68 69 69 69 70 70 70 71 71 71 71 71 71 71 72 71 71 70 70 70 70 69 67 66 65 64 63 61 59 59 58 59 61 62 62 63 62 62 61 60 58 53 54 57 58 59 59 58 58 57 57 57 56 57 57 58 57 57 57 57 57 56 56 56 56 56 56 56 56 56 55 55 54 54 52 52 51 51 48
70 70 70 70 68 67 67 68 68 68 69 71 72 72 72 71 71 72 72 72 72 71 71 71 71 71 70 68 66 64 64 63 62 57 59 56 58 60 61 62 62 62 60 57 60 59 58 58 58 58 59 58 58 58 58 57 57 56 56 56 56 57 57 57 56 56 56 56 55 56 56 56 56 56 56 55 56 54 53 53 53 52 52 50 45
68 67 68 69 69 70 70 70 69 68 68 69 70 71 66 60 67 71 71 66 64 63 63 70 71 71 69 67 66 65 63 64 55 51 51 51 52 54 56 55 55 58 55 55 58 59 59 58 59 59 58 58 58 57 57 57 57 56 55 54 55 56 56 56 56 55 55 56 56 56 56 56 56 56 55 55 55 52 51 50 51 51 50 47 46
66 65 65 65 65 65 66 66 66 66 67 68 68 68 68 67 54 52 50 54 60 58 55 57 58 61 66 66 63 59 58 54 49 48 48 48 49 50 50 49 50 49 51 58 59 59 59 59 59 59 58 58 58 57 57 57 56 56 55 55 55 55 55 55 55 55 55 55 55 56 56 55 56 55 55 53 52 51 50 49 50 51 48 47 46
64 64 65 65 64 64 64 64 64 65 64 65 65 65 64 64 65 57 50 50 51 52 50 51 54 56 57 60 62 63 55 49 47 47 47 48 49 49 48 47 47 49 51 54 60 59 60 59 58 58 58 58 58 58 57 57 57 56 56 55 55 55 54 54 54 55 55 55 55 55 55 55 55 54 52 50 50 49 48 48 48 48 48 47 46
64 64 64 64 65 65 65 64 64 64 64 64 63 63 63 62 62 61 58 48 47 48 50 52 52 54 54 54 55 56 52 49 47 47 46 46 46 47 46 46 47 48 52 58 59 59 60 59 58 58 58 58 58 58 57 57 57 57 57 56 56 55 55 55 54 55 55 55 55 55 54 54 52 51 50 49 48 45 47 47 47 47 46 45 45
64 64 64 64 63 63 64 64 64 63 63 63 63 63 62 62 62 59 56 57 58 53 50 50 52 52 52 51 50 48 47 46 46 46 46 46 46 45 46 49 46 50 54 60 59 59 59 58 58 58 58 58 58 58 57 58 57 56 56 56 56 56 56 56 55 55 54 54 54 54 52 51 50 48 47 46 46 45 45 46 47 45 44 44 43
66 66 65 64 63 63 63 63 63 63 63 63 63 63 62 62 62 60 58 59 60 60 60 56 51 50 54 51 47 46 45 45 45 45 45 45 45 44 47 54 57 58 59 60 59 59 58 58 57 57 58 58 57 58 57 57 56 56 56 56 55 54 54 54 55 55 54 54 53 51 50 49 47 45 45 45 44 44 45 46 45 45 45 44 44
64 64 64 64 63 63 63 62 63 62 62 63 64 64 64 63 62 61 60 59 60 61 58 56 54 49 46 46 44 44 43 44 44 44 44 44 45 50 57 58 59 59 59 59 59 58 58 58 58 57 57 58 57 57 57 56 56 56 56 55 54 53 54 53 54 53 52 51 48 48 47 47 46 45 44 43 44 45 45 44 43 44 44 44 44
64 64 64 64 64 63 63 63 62 62 62 63 63 63 62 61 61 61 61 61 60 58 53 50 50 49 49 49 46 44 44 44 44 44 45 46 49 57 60 60 59 59 58 58 58 58 57 57 58 57 57 56 56 56 55 55 55 55 53 54 53 51 51 51 51 51 50 47 48 48 48 46 46 45 41 42 44 45 43 44 44 45 45 45 45
63 63 63 63 63 63 62 62 62 62 63 63 62 62 61 61 61 61 61 61 60 60 58 54 52 51 49 49 51 48 47 44 43 44 46 49 55 59 60 60 59 59 58 58 58 58 57 57 56 56 56 55 54 54 53 53 52 52 51 51 50 50 50 49 50 51 51 49 47 49 47 45 46 44 44 44 44 44 43 44 43 43 44 45 44
62 59 59 60 61 63 63 63 63 63 62 62 62 62 61 61 61 61 61 61 60 58 57 55 53 52 51 51 50 52 53 54 53 53 55 58 59 59 59 59 59 59 58 58 58 58 57 56 55 55 54 53 53 52 51 51 51 50 50 48 48 49 49 48 49 50 48 47 47 47 47 47 45 45 46 44 42 43 42 42 43 43 42 42 43
62 62 61 60 62 62 63 63 63 63 63 62 62 61 61 60 60 60 60 60 59 59 57 55 53 52 53 55 56 57 56 55 55 55 56 58 58 58 59 59 58 58 58 57 57 57 56 55 54 53 53 52 51 50 51 51 50 50 49 48 48 48 48 48 48 47 47 47 47 47 47 46 46 45 46 44 42 43 44 43 44 44 44 43 43
63 63 63 60 60 62 63 63 62 62 62 62 61 60 60 61 60 60 59 59 59 58 57 55 54 54 54 53 52 53 57 56 56 56 58 58 58 58 58 58 58 58 57 57 56 55 55 53 52 52 52 51 50 50 50 50 49 49 49 49 49 48 48 47 48 47 47 47 46 46 46 46 46 45 44 44 43 44 45 45 44 43 44 44 43
63 62 63 62 62 62 62 62 62 63 62 61 60 60 60 60 60 60 59 59 58 56 55 54 53 53 49 47 48 50 56 57 57 57 58 58 57 57 57 57 58 58 58 56 55 55 54 53 52 51 51 51 50 50 50 49 49 48 48 48 48 48 47 46 47 47 46 46 45 45 45 45 46 45 44 42 45 45 44 43 43 44 44 43 44
64 64 64 64 63 63 62 62 62 62 62 61 61 61 61 60 60 60 59 59 58 57 55 54 53 53 52 48 51 52 57 57 58 57 57 57 57 56 56 56 57 57 57 57 55 55 54 52 52 51 51 51 50 50 49 49 49 48 48 48 47 47 47 46 45 45 45 44 44 45 45 45 45 44 44 46 44 44 43 44 44 44 44 45 44
63 63 63 63 62 62 62 62 61 62 62 62 61 60 60 60 60 60 59 58 57 56 55 54 54 53 53 51 52 55 57 57 57 57 57 57 56 56 55 56 55 56 56 56 55 54 53 52 52 51 51 51 51 51 50 49 49 48 48 47 47 47 46 45 45 45 44 43 44 45 45 45 46 45 45 46 44 42 42 43 43 44 43 44 45
62 62 61 62 61 61 61 62 62 62 61 60 60 60 60 59 59 58 58 58 57 56 55 55 54 54 54 53 54 55 55 56 56 56 56 56 56 55 55 55 55 55 56 56 55 54 53 52 52 51 51 51 51 51 50 50 50 49 48 47 47 46 46 46 46 45 45 45 44 45 44 45 45 44 44 46 44 42 39 41 41 43 45 45 44
61 61 61 60 60 60 61 61 62 62 62 61 60 60 59 59 58 59 58 58 57 56 56 55 54 54 54 53 54 54 54 55 55 55 55 55 55 55 55 54 54 54 55 55 55 54 53 53 52 51 51 51 51 50 50 50 50 49 49 48 48 47 47 46 46 46 45 45 44 44 44 44 43 42 43 41 41 42 40 42 43 44 45 45 44
61 61 61 61 61 61 60 60 60 61 60 60 60 59 59 59 59 60 59 58 57 56 55 54 54 54 53 53 53 54 54 54 54 54 55 55 55 55 55 54 53 54 54 55 55 54 54 53 52 52 52 51 51 51 49 48 47 46 46 46 47 46 45 45 45 46 45 45 45 44 44 43 41 42 40 42 42 40 42 41 43 45 45 45 44
60 61 61 61 61 61 60 60 60 60 60 60 60 60 59 59 59 58 58 58 56 55 54 54 53 53 53 53 54 54 54 54 55 55 55 55 55 55 55 55 54 53 54 54 54 54 53 53 53 53 52 52 51 50 49 47 46 45 44 44 44 44 44 43 46 46 46 45 44 44 44 41 39 39 39 42 42 42 41 41 43 44 45 45 45
61 60 60 60 60 60 59 59 59 58 58 58 58 59 59 59 58 58 58 56 56 55 56 54 54 54 53 54 54 54 54 55 55 55 55 55 55 55 55 55 55 54 54 53 53 53 54 53 53 53 52 52 51 50 48 46 44 43 43 43 43 40 38 40 42 45 42 45 42 41 41 40 39 40 41 41 40 40 41 42 43 44 45 46 45
61 61 60 60 59 59 59 59 58 58 58 58 58 58 58 59 59 59 57 56 55 55 54 54 54 54 54 54 54 54 54 54 54 54 54 54 54 54 54 55 55 55 54 54 53 53 53 53 53 52 52 52 51 50 47 46 43 42 42 42 38 36 36 37 39 39 41 42 40 39 38 38 39 39 39 40 41 42 41 41 43 45 46 45 45
61 60 60 60 59 58 58 58 58 58 58 58 58 57 57 57 58 58 57 57 56 55 54 54 53 54 54 54 54 54 54 54 54 54 54 54 54 54 54 54 54 54 54 54 53 53 53 53 52 52 52 50 49 47 45 43 43 42 40 37 36 36 37 39 41 36 38 38 40 38 37 38 39 39 39 39 39 39 40 42 44 46 46 43 42